This is the latest recevied weather packets stored in our database for station/object KR4KUV. If no packets are shown the sender has not sent any weather packets the latest 10 day(s).
| Time | Temp. | Humidity | Pressure | Rain* | Wind** | Luminosity | Snow |
|---|---|---|---|---|---|---|---|
| 1787782065 | 30.56° C | 67% | 1017.3 hPa | 0 mm | - | 153 W/m² | - |
| 1787781760 | 30.56° C | 67% | 1017.4 hPa | 0 mm | - | 161 W/m² | - |
| 1787781457 | 30° C | 68% | 1017.5 hPa | 0 mm | - | 175 W/m² | - |
| 1787781152 | 30.56° C | 67% | 1017.5 hPa | 0 mm | - | 115 W/m² | - |
| 1787780851 | 31.11° C | 68% | 1017.5 hPa | 0 mm | - | 112 W/m² | - |
| 1787780550 | 31.11° C | 64% | 1017.4 hPa | 0 mm | - | 184 W/m² | - |
| 1787780246 | 31.11° C | 65% | 1017.3 hPa | 0 mm | - | 225 W/m² | - |
| 1787779941 | 31.67° C | 64% | 1017.3 hPa | 0 mm | - | 296 W/m² | - |
| 1787779636 | 31.11° C | 66% | 1017.4 hPa | 0 mm | - | 358 W/m² | - |
| 1787779335 | 31.11° C | 68% | 1017.4 hPa | 0 mm | - | 260 W/m² | - |
| 1787779030 | 30.56° C | 66% | 1017.4 hPa | 0 mm | - | 344 W/m² | - |
| 1787778726 | 30.56° C | 65% | 1017.5 hPa | 0 mm | - | 139 W/m² | - |
| 1787778422 | 30.56° C | 66% | 1017.4 hPa | 0 mm | - | 204 W/m² | - |
| 1787778117 | 30.56° C | 67% | 1017.5 hPa | 0 mm | - | 182 W/m² | - |
| 1787777815 | 30.56° C | 69% | 1017.5 hPa | 0 mm | - | 378 W/m² | - |
| 1787777507 | 30° C | 67% | 1017.5 hPa | 0 mm | - | 179 W/m² | - |
| 1787777201 | 30.56° C | 66% | 1017.6 hPa | 0 mm | - | 206 W/m² | - |
| 1787776900 | 30.56° C | 67% | 1017.6 hPa | 0 mm | - | 193 W/m² | - |
| 1787776599 | 30.56° C | 64% | 1017.5 hPa | 0 mm | - | 165 W/m² | - |
| 1787776298 | 31.11° C | 63% | 1017.7 hPa | 0 mm | - | 233 W/m² | - |
| 1787775997 | 30.56° C | 62% | 1017.9 hPa | 0 mm | - | 318 W/m² | - |
| 1787775692 | 30.56° C | 64% | 1017.8 hPa | 0 mm | - | 217 W/m² | - |
| 1787775390 | 31.11° C | 62% | 1017.9 hPa | 0 mm | - | 178 W/m² | - |
| 1787775085 | 31.11° C | 67% | 1017.9 hPa | 0 mm | - | 241 W/m² | - |
| 1787774784 | 30° C | 71% | 1017.9 hPa | 0 mm | - | 525 W/m² | - |
* Rain latest hour (hover to see other rain measurements)
** Current wind speed in m/s (hover to see current wind gust speed)